Thayer, KS

2:55 AM CST on February 21, 2017 (GMT -0600)
Tri-City

Weather History for KPPF - November, 2012

Change the Weather History Date:

Saturday, November 24, 2012

  Actual Average Record
Temperature  
Mean Temperature 35 °F -  
Max Temperature 51 °F 52 °F 71 °F (2010)
Min Temperature 19 °F 30 °F 9 °F (1950)
Degree Days  
Heating Degree Days 30    
Moisture  
Dew Point 20 °F    
Average Humidity 58    
Maximum Humidity 89    
Minimum Humidity 32    
Precipitation  
Precipitation 0.00 in - - ()
Sea Level Pressure  
Sea Level Pressure 30.24 in    
Wind  
Wind Speed 4 mph (South)    
Max Wind Speed 13 mph    
Max Gust Speed 21 mph    
Visibility 10 miles    
Events      
Averages and records for this station are not official NWS values.
T = Trace of Precipitation, MM = Missing Value Source: NWS Daily Summary

Daily Weather History Graph

Daily Weather History Graph

Search for Another Location

Airport or City:

Trip Planner

Search our weather history database for the weather conditions in past years. The results will help you decide how hot, cold, wet, or windy it might be!

Date:

Astronomy

Nov. 24, 2012 Rise Set
Actual Time 7:11 AM CST 5:06 PM CST
Civil Twilight 6:42 AM CST 5:34 PM CST
Nautical Twilight 6:10 AM CST 6:06 PM CST
Astronomical Twilight 5:39 AM CST 6:38 PM CST
Moon 2:48 PM CST (11/24) 3:32 AM CST (11/24)
Length of Visible Light 10h 52m
Length of Day
9h 55m
Waxing Gibbous, 87% of the Moon is Illuminated
Nov 24
Waxing Gibbous
Nov 28
Full
Dec 6
Last Quarter
Dec 13
New
Dec 19
First Quarter

Hourly Weather History & Observations

Time (CST) Temp. Windchill Dew Point Humidity Pressure Visibility Wind Dir Wind Speed Gust Speed Precip Events Conditions
12:52 AM 21.0 °F - 17.1 °F 85% 30.46 in 10.0 mi Calm Calm - N/A   Clear
1:52 AM 21.9 °F - 18.0 °F 85% 30.45 in 10.0 mi Calm Calm - N/A   Clear
2:52 AM 19.9 °F - 17.1 °F 89% 30.43 in 10.0 mi Calm Calm - N/A   Clear
3:52 AM 21.0 °F - 17.1 °F 85% 30.43 in 10.0 mi Calm Calm - N/A   Clear
4:52 AM 21.0 °F - 17.1 °F 85% 30.42 in 10.0 mi Calm Calm - N/A   Clear
5:52 AM 19.0 °F - 16.0 °F 88% 30.42 in 10.0 mi Calm Calm - N/A   Clear
6:52 AM 19.0 °F - 16.0 °F 88% 30.41 in 10.0 mi Calm Calm - N/A   Clear
7:52 AM 21.0 °F - 18.0 °F 88% 30.41 in 10.0 mi Calm Calm - N/A   Clear
8:52 AM 32.0 °F - 23.0 °F 69% 30.40 in 10.0 mi Calm Calm - N/A   Clear
9:52 AM 37.0 °F 31.6 °F 19.9 °F 50% 30.38 in 10.0 mi South 6.9 mph - N/A   Clear
10:52 AM 41.0 °F 35.2 °F 18.0 °F 40% 30.35 in 10.0 mi South 9.2 mph - N/A   Clear
11:52 AM 44.1 °F 38.6 °F 19.0 °F 37% 30.28 in 10.0 mi South 10.4 mph 17.3 mph N/A   Clear
12:52 PM 46.9 °F - 21.0 °F 36% 30.23 in 10.0 mi South 9.2 mph - N/A   Clear
1:52 PM 48.9 °F - 19.9 °F 32% 30.18 in 10.0 mi South 12.7 mph 17.3 mph N/A   Clear
2:52 PM 50.0 °F - 21.0 °F 32% 30.13 in 10.0 mi SSE 9.2 mph 18.4 mph N/A   Clear
3:52 PM 51.1 °F - 21.9 °F 32% 30.08 in 10.0 mi South 10.4 mph 20.7 mph N/A   Clear
4:52 PM 48.9 °F - 19.9 °F 32% 30.07 in 10.0 mi South 12.7 mph 19.6 mph N/A   Clear
5:52 PM 44.1 °F 42.5 °F 21.9 °F 42% 30.06 in 10.0 mi South 3.5 mph - N/A   Clear
6:52 PM 44.1 °F 40.1 °F 23.0 °F 43% 30.06 in 10.0 mi South 6.9 mph - N/A   Clear
7:52 PM 43.0 °F 38.2 °F 23.0 °F 45% 30.04 in 10.0 mi South 8.1 mph - N/A   Clear
8:52 PM 42.1 °F 36.6 °F 23.0 °F 47% 30.02 in 10.0 mi South 9.2 mph - N/A   Clear
9:52 PM 42.1 °F 36.1 °F 24.1 °F 49% 30.00 in 10.0 mi South 10.4 mph - N/A   Clear
10:52 PM 41.0 °F 35.8 °F 25.0 °F 53% 30.01 in 10.0 mi South 8.1 mph - N/A   Clear
11:52 PM 41.0 °F 35.2 °F 24.1 °F 51% 29.99 in 10.0 mi South 9.2 mph - N/A   Clear